Stations météo

réclame
Mon MeteoGroup
Sete, France (7641): Température de l'air & dewpoint: 14.06.2018 07:00:00 - 20.06.2018 07:00:00 (CEST)Sete, France (7641): Vitesse du vent & gusts: 14.06.2018 07:00:00 - 20.06.2018 07:00:00 (CEST)Sete, France (7641): Direction du vent: 14.06.2018 07:00:00 - 20.06.2018 07:00:00 (CEST)Sete, France (7641): reduced air pressure: 14.06.2018 07:00:00 - 20.06.2018 07:00:00 (CEST)Sete, France (7641): visibility: 14.06.2018 07:00:00 - 20.06.2018 07:00:00 (CEST)Sete, France (7641): Quantités de précipitations: 14.06.2018 07:00:00 - 20.06.2018 07:00:00 (CEST)
Date & Time tt [°C] td [°C] ff [km/h] ff [knt] fx [km/h] fx [knt] dd ppp [hPa] vv [km] rr [mm]
20.06.2018 07:00:00 24,7 15,6 2 1 9 5 ENE 1018,7 - 0,0
20.06.2018 06:00:00 23,5 15,3 7 4 10 5 SW 1018,5 - 0,0
20.06.2018 05:00:00 23,3 15,6 3 2 5 3 SW 1018,4 - 0,0
20.06.2018 04:00:00 24,0 15,5 3 1 6 3 ESE 1018,6 - 0,0
20.06.2018 03:00:00 24,3 15,0 3 2 8 4 E 1018,9 - 0,0
20.06.2018 02:00:00 23,5 15,3 4 2 10 5 NNE 1019,1 - 0,0
20.06.2018 01:00:00 24,2 15,4 3 2 10 6 NNE 1019,2 - 0,0
20.06.2018 00:00:00 25,6 15,9 7 4 17 9 WNW 1019,2 - 0,0
19.06.2018 23:00:00 26,4 14,5 10 5 19 10 W 1018,9 - 0,0
19.06.2018 22:00:00 26,9 14,3 12 7 19 10 W 1018,3 - 0,0
19.06.2018 21:00:00 27,0 14,7 13 7 21 11 W 1018,0 - 0,0
19.06.2018 20:00:00 27,1 13,8 15 8 21 12 WSW 1018,2 - 0,0
19.06.2018 19:00:00 28,2 13,7 10 5 19 10 SW 1018,4 - 0,0
19.06.2018 18:00:00 29,0 13,6 8 4 18 10 SW 1018,8 - 0,0
19.06.2018 17:00:00 29,2 13,8 9 5 19 10 SSW 1019,1 20 0,0
19.06.2018 16:00:00 28,8 13,5 8 5 21 12 SSW 1019,4 - 0,0
19.06.2018 15:00:00 28,9 13,2 5 3 18 10 SSW 1019,7 - 0,0
19.06.2018 14:00:00 29,2 13,8 5 3 15 8 S 1020,0 - 0,0
19.06.2018 13:00:00 28,2 12,5 5 3 28 15 S 1020,3 - 0,0
19.06.2018 12:00:00 27,6 12,0 18 10 34 19 N 1020,5 - 0,0
19.06.2018 11:00:00 26,8 11,7 14 8 35 19 N 1020,7 - 0,0
19.06.2018 10:00:00 25,3 12,2 13 7 30 16 NNW 1021,0 - 0,0
19.06.2018 09:00:00 23,0 12,9 16 9 35 19 NW 1021,1 - 0,0
19.06.2018 08:00:00 21,6 12,4 16 9 37 20 NW 1021,0 20 0,0
19.06.2018 07:00:00 20,4 12,6 19 10 40 22 NNW 1020,8 - 0,0
19.06.2018 06:00:00 19,9 12,6 23 12 41 22 NW 1020,6 - 0,0
19.06.2018 05:00:00 20,1 13,1 23 12 44 24 NW 1020,4 - 0,0
19.06.2018 04:00:00 20,5 13,5 26 14 47 25 NW 1020,5 - 0,0
19.06.2018 03:00:00 20,7 14,1 26 14 45 25 NW 1020,3 - 0,0
19.06.2018 02:00:00 21,2 14,1 25 13 44 24 NW 1020,6 - 0,0
19.06.2018 01:00:00 21,4 14,3 22 12 45 24 NW 1020,9 - 0,0
19.06.2018 00:00:00 21,8 14,4 17 9 35 19 NW 1021,0 - 0,0
18.06.2018 23:00:00 22,3 13,9 19 11 43 23 NW 1020,7 - 0,0
18.06.2018 22:00:00 23,1 13,8 19 11 42 23 NW 1020,0 - 0,0
18.06.2018 21:00:00 24,1 13,3 20 11 47 26 NW 1019,3 - 0,0
18.06.2018 20:00:00 25,1 13,6 19 10 53 29 NW 1019,0 - 0,0
18.06.2018 19:00:00 26,6 14,4 17 9 46 25 NW 1018,5 - 0,0
18.06.2018 18:00:00 27,2 14,2 18 10 58 31 NW 1018,6 - 0,0
18.06.2018 17:00:00 27,4 13,3 21 11 52 28 NW 1018,8 - 0,0
18.06.2018 16:00:00 27,3 13,3 23 12 49 26 NNW 1018,7 - 0,0
18.06.2018 15:00:00 27,1 13,1 22 12 49 26 NNW 1018,8 - 0,0
18.06.2018 14:00:00 26,5 12,9 21 11 51 28 NW 1019,2 20 0,0
18.06.2018 13:00:00 25,7 12,2 21 12 50 27 NW 1019,5 - 0,0
18.06.2018 12:00:00 25,0 11,5 19 10 45 24 NW 1019,9 - 0,0
18.06.2018 11:00:00 24,0 11,3 16 8 43 23 NW 1020,0 - 0,0
18.06.2018 10:00:00 22,7 11,4 19 11 46 25 NW 1020,4 - 0,0
18.06.2018 09:00:00 21,4 10,5 17 9 46 25 NW 1020,4 - 0,0
18.06.2018 08:00:00 20,4 11,1 10 5 32 18 WNW 1020,2 20 0,0
18.06.2018 07:00:00 19,5 11,8 8 4 30 16 W 1020,7 - 0,0
18.06.2018 06:00:00 19,2 11,2 13 7 44 24 WNW 1020,4 - 0,0
18.06.2018 05:00:00 19,4 11,4 11 6 44 24 NW 1020,2 - 0,0
18.06.2018 04:00:00 19,5 12,0 16 9 46 25 NW 1020,1 - 0,0
18.06.2018 03:00:00 19,7 12,0 27 15 51 28 NW 1019,9 - 0,0
18.06.2018 02:00:00 20,0 11,7 22 12 53 28 NW 1020,4 - 0,0
18.06.2018 01:00:00 20,3 11,2 19 10 44 24 NW 1020,5 - 0,0
18.06.2018 00:00:00 20,7 10,5 13 7 44 24 NW 1020,6 - 0,0
17.06.2018 23:00:00 21,2 9,4 16 8 43 23 NW 1020,0 - 0,0
17.06.2018 22:00:00 21,7 8,9 17 9 43 23 NW 1019,4 - 0,0
17.06.2018 21:00:00 22,3 9,8 19 10 54 29 NW 1018,9 - 0,0
17.06.2018 20:00:00 23,2 9,6 17 9 49 26 NW 1018,4 20 0,0
17.06.2018 19:00:00 24,5 9,6 21 11 48 26 NW 1018,1 - 0,0
17.06.2018 18:00:00 23,3 10,7 19 10 50 27 NW 1018,0 - 0,0
17.06.2018 17:00:00 22,7 12,0 19 10 59 32 NW 1018,2 - 0,0
17.06.2018 16:00:00 23,3 11,7 20 11 58 31 NW 1018,2 - 0,0
17.06.2018 15:00:00 25,2 11,7 14 8 50 27 NW 1018,3 - 0,0
17.06.2018 14:00:00 25,9 12,4 14 8 48 26 NW 1018,3 - 0,0
17.06.2018 13:00:00 25,0 11,9 14 8 51 28 NW 1018,2 - 0,0
17.06.2018 12:00:00 24,3 11,6 19 10 43 23 NW 1018,5 - 0,0
17.06.2018 11:00:00 23,4 11,1 18 10 52 28 NW 1018,5 20 0,0
17.06.2018 10:00:00 22,7 11,4 22 12 54 29 NW 1018,6 - 0,0
17.06.2018 09:00:00 22,0 11,4 18 10 56 31 NW 1018,6 - 0,0
17.06.2018 08:00:00 20,3 11,8 20 11 47 26 NW 1018,3 - 0,0
17.06.2018 07:00:00 19,4 11,4 21 12 50 27 NW 1017,8 - 0,0
17.06.2018 06:00:00 19,1 11,1 16 9 51 28 NW 1017,3 - 0,0
17.06.2018 05:00:00 19,3 11,3 20 11 49 26 NW 1016,9 - 0,0
17.06.2018 04:00:00 19,6 11,4 25 13 52 28 NW 1016,7 - 0,0
17.06.2018 03:00:00 19,9 11,6 18 10 53 29 NW 1017,0 - 0,0
17.06.2018 02:00:00 20,3 11,5 24 13 52 28 NW 1016,7 - 0,0
17.06.2018 01:00:00 20,8 11,7 23 12 53 29 NW 1016,9 - 0,0
17.06.2018 00:00:00 21,5 12,1 21 12 50 27 NW 1016,7 - 0,0
16.06.2018 23:00:00 21,9 13,0 16 9 39 21 WNW 1016,2 - 0,0
16.06.2018 22:00:00 22,6 13,6 13 7 38 21 WNW 1015,4 - 0,0
16.06.2018 21:00:00 23,5 13,7 18 10 48 26 NW 1014,6 - 0,0
16.06.2018 20:00:00 24,9 13,8 19 10 44 24 NW 1013,9 - 0,0
16.06.2018 19:00:00 26,5 13,6 15 8 36 19 NNW 1013,6 - 0,0
16.06.2018 18:00:00 26,6 14,4 12 6 39 21 NW 1013,4 - 0,0
16.06.2018 17:00:00 27,2 14,2 15 8 45 24 NW 1013,7 - 0,0
16.06.2018 16:00:00 29,2 12,2 16 8 39 21 WNW 1013,5 - 0,0
16.06.2018 15:00:00 28,7 11,3 18 10 39 21 NW 1013,6 - 0,0
16.06.2018 14:00:00 28,7 12,2 15 8 34 18 NW 1014,1 20 0,0
16.06.2018 13:00:00 28,2 12,9 14 7 31 17 NNW 1014,3 - 0,0
16.06.2018 12:00:00 26,8 13,2 13 7 29 16 NW 1014,2 - 0,0
16.06.2018 11:00:00 26,4 12,8 13 7 31 17 N 1014,2 20 0,0
16.06.2018 10:00:00 24,2 13,1 16 8 39 21 NW 1014,2 - 0,0
16.06.2018 09:00:00 22,4 13,7 18 10 37 20 NW 1014,4 - 0,0
16.06.2018 08:00:00 21,1 13,5 14 8 31 17 NW 1014,5 - 0,0
16.06.2018 07:00:00 19,8 13,7 13 7 36 20 NW 1014,1 - 0,0
16.06.2018 06:00:00 19,4 13,8 17 9 36 19 NW 1013,8 - 0,0
16.06.2018 05:00:00 19,6 13,8 20 11 39 21 WNW 1013,7 20 0,0
16.06.2018 04:00:00 19,3 13,7 12 6 34 18 WNW 1014,0 - 0,0
16.06.2018 03:00:00 19,5 14,1 13 7 31 17 W 1014,3 - 0,0
16.06.2018 02:00:00 19,8 13,9 13 7 37 20 WNW 1014,5 - 0,0
16.06.2018 01:00:00 20,4 13,8 18 10 39 21 WNW 1014,7 - 0,0
16.06.2018 00:00:00 20,9 13,8 18 10 40 22 WNW 1014,5 - 0,0
15.06.2018 23:00:00 21,3 14,0 14 8 31 17 WNW 1014,2 - 0,0
15.06.2018 22:00:00 22,1 13,7 11 6 39 21 WNW 1013,6 - 0,0
15.06.2018 21:00:00 23,1 13,6 13 7 36 19 WNW 1013,2 - 0,0
15.06.2018 20:00:00 23,6 13,2 16 8 45 24 NW 1012,9 - 0,0
15.06.2018 19:00:00 25,6 13,1 12 6 43 23 NW 1012,6 - 0,0
15.06.2018 18:00:00 25,4 13,9 10 5 30 16 WNW 1012,5 - 0,0
15.06.2018 17:00:00 25,3 14,1 12 7 37 20 NW 1012,6 - 0,0
15.06.2018 16:00:00 24,9 13,8 17 9 41 22 WNW 1012,9 - 0,0
15.06.2018 15:00:00 27,5 11,1 13 7 34 19 NW 1012,6 - 0,0
15.06.2018 14:00:00 27,2 11,6 13 7 37 20 NNW 1013,0 - 0,0
15.06.2018 13:00:00 26,3 11,2 11 6 34 18 NW 1013,3 - 0,0
15.06.2018 12:00:00 23,2 12,8 11 6 29 16 NNW 1014,0 - 0,0
15.06.2018 11:00:00 21,1 12,5 15 8 29 16 NNW 1014,2 25 0,0
15.06.2018 10:00:00 21,2 11,8 12 7 29 15 NW 1014,1 - 0,0
15.06.2018 09:00:00 21,0 12,2 13 7 38 21 WNW 1013,9 - 0,0
15.06.2018 08:00:00 19,7 11,7 21 11 38 20 NW 1013,5 20 0,0
15.06.2018 07:00:00 19,6 11,4 16 9 38 20 NW 1013,3 - 0,0
15.06.2018 06:00:00 19,4 10,9 16 9 36 19 NW 1013,2 - 0,0
15.06.2018 05:00:00 19,2 11,5 13 7 35 19 NW 1013,2 25 0,0
15.06.2018 04:00:00 19,3 11,8 19 10 44 24 NW 1013,4 - 0,0
15.06.2018 03:00:00 19,7 11,7 21 11 44 24 NW 1013,4 - 0,0
15.06.2018 02:00:00 20,4 11,9 16 9 37 20 NW 1013,8 - 0,0
15.06.2018 01:00:00 20,4 11,9 15 8 32 17 NW 1014,1 - 0,0
15.06.2018 00:00:00 20,8 11,7 16 8 37 20 NW 1014,3 - 0,0
14.06.2018 23:00:00 21,4 11,1 16 9 37 20 NW 1014,2 - 0,0
14.06.2018 22:00:00 21,9 10,7 10 6 35 19 NW 1013,5 - 0,0
14.06.2018 21:00:00 22,7 10,2 15 8 46 25 WNW 1013,0 - 0,0
14.06.2018 20:00:00 23,9 10,2 20 11 45 25 NW 1012,3 20 0,0
14.06.2018 19:00:00 25,5 9,7 18 10 46 25 NNW 1011,8 - 0,0
14.06.2018 18:00:00 26,1 9,0 18 10 50 27 NNW 1011,6 - 0,0
14.06.2018 17:00:00 26,6 8,5 18 10 49 26 NW 1011,6 20 0,0
14.06.2018 16:00:00 26,1 8,1 24 13 48 26 NW 1011,8 - 0,0
14.06.2018 15:00:00 26,1 9,0 18 10 53 28 NNW 1012,0 - 0,0
14.06.2018 14:00:00 25,3 8,3 19 11 51 27 NNW 1012,5 20 0,0
14.06.2018 13:00:00 24,7 8,2 16 9 49 26 NNW 1013,1 - 0,0
14.06.2018 12:00:00 23,4 7,9 17 9 44 24 NNW 1013,4 - 0,0
14.06.2018 11:00:00 22,2 8,7 15 8 44 24 NNW 1013,3 20 0,0
14.06.2018 10:00:00 20,3 8,3 16 8 51 28 NW 1013,4 - 0,0
14.06.2018 09:00:00 18,8 7,9 22 12 48 26 NW 1013,4 - 0,0
14.06.2018 08:00:00 17,4 8,0 15 8 41 22 WNW 1013,4 20 0,0
14.06.2018 07:00:00 16,1 8,3 21 11 46 25 WNW 1013,0 - 0,0

tt = Température de l'air
td = dewpoint
ff = Vitesse du vent
fx = gusts
dd = Direction du vent
ppp = reduced air pressure
vv = visibility
rr = Quantités de précipitations

stations d'obs. à proximité